Regional Weather Roundup
Issued by NWS

Home | Current Version | Previous Version | Graphics & Text | Print | Product List | Glossary On
Versions: 1 2 3 4 5 6 7 8 9 10 11 12 13 14 15 16 17 18 19 20 21 22 23 24 25 26 27 28 29 30 31 32 33 34 35 36 37 38 39 40 41 42 43 44 45 46 47 48 49 50
386
ASUS43 KBIS 312210
RWRND

NORTH DAKOTA REGIONAL WEATHER ROUNDUP
NATIONAL WEATHER SERVICE BISMARCK ND
500 PM CDT WED AUG 31 2016

NOTE: "FAIR" INDICATES FEW OR NO CLOUDS BELOW 12,000 FEET WITH NO
SIGNIFICANT WEATHER AND/OR OBSTRUCTIONS TO VISIBILITY.


NDZ001>003-009>011-017-312300-
NORTHWEST NORTH DAKOTA

CITY           SKY/WX    TMP DP  RH WIND       PRES   REMARKS
WILLISTON      SUNNY     96  50  20 SE15G24   29.98F HX  93
MINOT          CLOUDY    78  60  53 E22G33    30.15R
MINOT AFB      PTSUNNY   76  60  57 E22G30    30.13S
$$

NDZ018>021-031>035-040>046-312300-
SOUTHWEST NORTH DAKOTA

CITY           SKY/WX    TMP DP  RH WIND       PRES   REMARKS
BISMARCK       SUNNY     85  58  39 SE18      30.11F
DICKINSON      SUNNY     89  48  24 S24G36    30.06F
GARRISON         N/A     87  64  46 SE13      30.11R
HETTINGER ARPT SUNNY     89  51  27 S20G30    30.12F
$$

NDZ004>008-012>016-024-026-027-054-312300-
NORTHEAST NORTH DAKOTA

CITY           SKY/WX    TMP DP  RH WIND       PRES   REMARKS
GRAND FORKS    MOSUNNY   77  55  46 NE9       30.19F
GRND FRKS AFB  SUNNY     75  55  49 E9        30.20F
DEVILS LAKE    MOSUNNY   73  54  51 E10       30.21F
$$

NDZ022-023-025-028>030-036>039-047>053-312300-
SOUTHEAST NORTH DAKOTA

CITY           SKY/WX    TMP DP  RH WIND       PRES   REMARKS
FARGO          SUNNY     78  55  44 E9        30.18F
JAMESTOWN      MOSUNNY   79  56  45 SE9       30.18F
$$





USA.gov is the U.S. government's official web portal to all federal, state and local government web resources and services.